,,Stat6,,Stat2,,Stat8,,Stat9,,Stat10,,Wind1,,Wind1
time,status,PA1M_AVG,status,PR1M_SUM,status,RH1M_AVG,status,SR1M_AVG,status,TA1M_AVG,status,W1dAve1m,status,W1sAve1m
2009-02-27, 00:00:00,VALID,917.676,VALID,0,VALID,100,VALID,-0.0169808,VALID,19.5608,VALID,23,VALID,0
2009-02-27, 00:01:00,VALID,917.654,VALID,0,VALID,100,VALID,-0.0169808,VALID,19.5663,VALID,300,VALID,0
2009-02-27, 00:02:00,VALID,917.652,VALID,0,VALID,100,VALID,-0.0679233,VALID,19.5995,VALID,300,VALID,0
2009-02-27, 00:03:00,VALID,917.644,VALID,0,VALID,100,VALID,-0.0339617,VALID,19.6035,VALID,300,VALID,0
2009-02-27, 00:04:00,VALID,917.64,VALID,0,VALID,100,VALID,0,VALID,19.6,VALID,300,VALID,0
2009-02-27, 00:05:00,VALID,917.621,VALID,0,VALID,100,VALID,-0.0339617,VALID,19.5932,VALID,340,VALID,0
2009-02-27, 00:06:00,VALID,917.61,VALID,0,VALID,100,VALID,-0.0339617,VALID,19.5772,VALID,20,VALID,0
2009-02-27, 00:07:00,VALID,917.585,VALID,0,VALID,100,VALID,-0.0339617,VALID,19.5805,VALID,304,VALID,0
2009-02-27, 00:08:00,VALID,917.581,VALID,0,VALID,100,VALID,-0.0509425,VALID,19.5877,VALID,356,VALID,0
2009-02-27, 00:09:00,VALID,917.565,VALID,0,VALID,100,VALID,-0.0339617,VALID,19.584,VALID,241,VALID,0
2009-02-27, 00:10:00,VALID,917.54,VALID,0.2,VALID,100,VALID,-0.0339617,VALID,19.5613,VALID,178,VALID,0
2009-02-27, 00:11:00,VALID,917.53,VALID,0,VALID,100,VALID,-0.0679233,VALID,19.5418,VALID,181,VALID,0
2009-02-27, 00:12:00,VALID,917.535,VALID,0,VALID,100,VALID,-0.0339617,VALID,19.5221,VALID,178,VALID,0
2009-02-27, 00:13:00,VALID,917.507,VALID,0,VALID,100,VALID,-0.0509425,VALID,19.5059,VALID,35,VALID,0
2009-02-27, 00:14:00,VALID,917.501,VALID,0,VALID,100,VALID,-0.0339617,VALID,19.5191,VALID,226,VALID,0
2009-02-27, 00:15:00,VALID,917.487,VALID,0,VALID,100,VALID,-0.0169808,VALID,19.5059,VALID,200,VALID,0
2009-02-27, 00:16:00,VALID,917.473,VALID,0,VALID,100,VALID,0,VALID,19.4859,VALID,184,VALID,0
2009-02-27, 00:17:00,VALID,917.473,VALID,0,VALID,100,VALID,-0.0169808,VALID,19.4991,VALID,177,VALID,0
2009-02-27, 00:18:00,VALID,917.453,VALID,0,VALID,100,VALID,-0.0679233,VALID,19.5061,VALID,83,VALID,0
2009-02-27, 00:19:00,VALID,917.443,VALID,0.2,VALID,100,VALID,-0.0509425,VALID,19.4899,VALID,47,VALID,0.180233
2009-02-27, 00:20:00,VALID,917.467,VALID,0,VALID,100,VALID,0,VALID,19.4669,VALID,264,VALID,0.00345203
2009-02-27, 00:21:00,VALID,917.454,VALID,0,VALID,100,VALID,-0.0509425,VALID,19.4535,VALID,44,VALID,0.000355114
2009-02-27, 00:22:00,VALID,917.468,VALID,0,VALID,100,VALID,-0.0169808,VALID,19.4472,VALID,43,VALID,0
2009-02-27, 00:23:00,VALID,917.439,VALID,0,VALID,100,VALID,-0.0849042,VALID,19.431,VALID,164,VALID,0.0667614
2009-02-27, 00:24:00,VALID,917.448,VALID,0,VALID,100,VALID,-0.0339617,VALID,19.4113,VALID,274,VALID,0.0587636
2009-02-27, 00:25:00,VALID,917.431,VALID,0,VALID,100,VALID,-0.0509425,VALID,19.3988,VALID,257,VALID,0
2009-02-27, 00:26:00,VALID,917.429,VALID,0,VALID,100,VALID,-0.0509425,VALID,19.4178,VALID,326,VALID,0
2009-02-27, 00:27:00,VALID,917.426,VALID,0,VALID,100,VALID,-0.0169808,VALID,19.4537,VALID,11,VALID,0
2009-02-27, 00:28:00,VALID,917.417,VALID,0.2,VALID,100,VALID,-0.0169808,VALID,19.4567,VALID,349,VALID,0
2009-02-27, 00:29:00,VALID,917.421,VALID,0,VALID,100,VALID,-0.0169808,VALID,19.4472,VALID,262,VALID,0.0265625
2009-02-27, 00:30:00,VALID,917.409,VALID,0,VALID,100,VALID,0,VALID,19.4347,VALID,222,VALID,0.00763081
2009-02-27, 00:31:00,VALID,917.4,VALID,0,VALID,100,VALID,-0.0339617,VALID,19.405,VALID,263,VALID,0.0352515
2009-02-27, 00:32:00,VALID,917.389,VALID,0.2,VALID,100,VALID,-0.0169808,VALID,19.3851,VALID,271,VALID,0
2009-02-27, 00:33:00,VALID,917.386,VALID,0,VALID,100,VALID,-0.0169808,VALID,19.3788,VALID,274,VALID,0.113377
2009-02-27, 00:34:00,VALID,917.34,VALID,0,VALID,100,VALID,-0.0849042,VALID,19.3823,VALID,329,VALID,0.0261628
2009-02-27, 00:35:00,VALID,917.316,VALID,0,VALID,100,VALID,-0.0509425,VALID,19.405,VALID,35,VALID,0.0401278
2009-02-27, 00:36:00,VALID,917.309,VALID,0,VALID,100,VALID,-0.0509425,VALID,19.4248,VALID,101,VALID,0
2009-02-27, 00:37:00,VALID,917.285,VALID,0,VALID,100,VALID,-0.0849042,VALID,19.4278,VALID,141,VALID,0
2009-02-27, 00:38:00,VALID,917.29,VALID,0,VALID,100,VALID,-0.0849042,VALID,19.418,VALID,205,VALID,0
2009-02-27, 00:39:00,VALID,917.274,VALID,0,VALID,100,VALID,-0.0679233,VALID,19.408,VALID,216,VALID,0
2009-02-27, 00:40:00,VALID,917.277,VALID,0,VALID,100,VALID,-0.0679233,VALID,19.4016,VALID,220,VALID,0
2009-02-27, 00:41:00,VALID,917.261,VALID,0,VALID,100,VALID,-0.0169808,VALID,19.3981,VALID,243,VALID,0
2009-02-27, 00:42:00,VALID,917.245,VALID,0,VALID,100,VALID,-0.0679233,VALID,19.4215,VALID,244,VALID,0
2009-02-27, 00:43:00,VALID,917.232,VALID,0.2,VALID,100,VALID,-0.0169808,VALID,19.4243,VALID,244,VALID,0
2009-02-27, 00:44:00,VALID,917.231,VALID,0,VALID,100,VALID,-0.0679233,VALID,19.4083,VALID,127,VALID,0
2009-02-27, 00:45:00,VALID,917.197,VALID,0,VALID,100,VALID,-0.0679233,VALID,19.408,VALID,42,VALID,0.0863186
2009-02-27, 00:46:00,VALID,917.207,VALID,0,VALID,100,VALID,-0.0509425,VALID,19.427,VALID,6,VALID,0
2009-02-27, 00:47:00,VALID,917.192,VALID,0,VALID,100,VALID,-0.0339617,VALID,19.4435,VALID,357,VALID,0
2009-02-27, 00:48:00,VALID,917.196,VALID,0,VALID,100,VALID,-0.0339617,VALID,19.424,VALID,34,VALID,0
2009-02-27, 00:49:00,VALID,917.18,VALID,0,VALID,100,VALID,-0.0509425,VALID,19.4467,VALID,29,VALID,0
2009-02-27, 00:50:00,VALID,917.158,VALID,0,VALID,100,VALID,-0.0339617,VALID,19.4368,VALID,30,VALID,0
2009-02-27, 00:51:00,VALID,917.145,VALID,0,VALID,100,VALID,-0.0509425,VALID,19.4268,VALID,47,VALID,0
2009-02-27, 00:52:00,VALID,917.133,VALID,0,VALID,100,VALID,-0.0509425,VALID,19.4303,VALID,29,VALID,0
2009-02-27, 00:53:00,VALID,917.117,VALID,0,VALID,100,VALID,-0.0509425,VALID,19.4437,VALID,28,VALID,0
2009-02-27, 00:54:00,VALID,917.087,VALID,0,VALID,100,VALID,-0.0509425,VALID,19.4345,VALID,24,VALID,0.533681
2009-02-27, 00:55:00,VALID,917.089,VALID,0,VALID,100,VALID,-0.0339617,VALID,19.3654,VALID,23,VALID,0.684028
2009-02-27, 00:56:00,VALID,917.075,VALID,0,VALID,100,VALID,0,VALID,19.3492,VALID,27,VALID,0.374199
2009-02-27, 00:57:00,VALID,917.057,VALID,0,VALID,100,VALID,-0.0509425,VALID,19.3464,VALID,21,VALID,0.159702
2009-02-27, 00:58:00,VALID,917.056,VALID,0,VALID,100,VALID,-0.0509425,VALID,19.3402,VALID,35,VALID,0.245458
2009-02-27, 00:59:00,VALID,917.037,VALID,0,VALID,100,VALID,-0.0339617,VALID,19.3272,VALID,24,VALID,0.643973
2009-02-27, 01:00:00,VALID,917.034,VALID,0,VALID,100,VALID,-0.0509425,VALID,19.268,VALID,25,VALID,0.164993
2009-02-27, 01:01:00,VALID,917.017,VALID,0,VALID,100,VALID,-0.0509425,VALID,19.2463,VALID,12,VALID,0.353659
2009-02-27, 01:02:00,VALID,916.998,VALID,0,VALID,100,VALID,-0.0509425,VALID,19.2067,VALID,30,VALID,0.370393
2009-02-27, 01:03:00,VALID,916.972,VALID,0,VALID,100,VALID,-0.0339617,VALID,19.2069,VALID,29,VALID,0.363095
2009-02-27, 01:04:00,VALID,916.97,VALID,0,VALID,100,VALID,-0.0509425,VALID,19.2004,VALID,26,VALID,0.759028
2009-02-27, 01:05:00,VALID,916.955,VALID,0,VALID,100,VALID,-0.0169808,VALID,19.1607,VALID,26,VALID,0.725419
2009-02-27, 01:06:00,VALID,916.926,VALID,0,VALID,100,VALID,-0.0169808,VALID,19.1483,VALID,21,VALID,0.109908
2009-02-27, 01:07:00,VALID,916.904,VALID,0,VALID,100,VALID,-0.0679233,VALID,19.1453,VALID,26,VALID,0.413699
2009-02-27, 01:08:00,VALID,916.876,VALID,0,VALID,100,VALID,-0.0509425,VALID,19.1415,VALID,28,VALID,0.866044
2009-02-27, 01:09:00,VALID,916.85,VALID,0,VALID,100,VALID,-0.0339617,VALID,19.1288,VALID,15,VALID,0.707741
2009-02-27, 01:10:00,VALID,916.84,VALID,0,VALID,100,VALID,-0.0509425,VALID,19.1128,VALID,8,VALID,0.0706522
2009-02-27, 01:11:00,VALID,916.814,VALID,0,VALID,100,VALID,-0.0509425,VALID,19.0991,VALID,18,VALID,0.184956
2009-02-27, 01:12:00,VALID,916.797,VALID,0,VALID,100,VALID,-0.0509425,VALID,19.1161,VALID,18,VALID,0
2009-02-27, 01:13:00,VALID,916.789,VALID,0,VALID,100,VALID,-0.0849042,VALID,19.1198,VALID,29,VALID,0.206845
2009-02-27, 01:14:00,VALID,916.755,VALID,0,VALID,100,VALID,-0.0679233,VALID,19.1093,VALID,39,VALID,0.338415
2009-02-27, 01:15:00,VALID,916.746,VALID,0,VALID,100,VALID,-0.0339617,VALID,19.0959,VALID,28,VALID,0.241806
2009-02-27, 01:16:00,VALID,916.729,VALID,0,VALID,100,VALID,-0.0339617,VALID,19.1253,VALID,22,VALID,0.428757
2009-02-27, 01:17:00,VALID,916.703,VALID,0,VALID,100,VALID,-0.0509425,VALID,19.1158,VALID,17,VALID,0.537388
2009-02-27, 01:18:00,VALID,916.675,VALID,0,VALID,100,VALID,0,VALID,19.0472,VALID,16,VALID,0.444957
2009-02-27, 01:19:00,VALID,916.659,VALID,0,VALID,100,VALID,-0.0169808,VALID,18.9988,VALID,28,VALID,0.744368
2009-02-27, 01:20:00,VALID,916.637,VALID,0,VALID,100,VALID,-0.0169808,VALID,18.9923,VALID,14,VALID,1.05327
2009-02-27, 01:21:00,VALID,916.628,VALID,0,VALID,100,VALID,-0.0339617,VALID,18.9661,VALID,18,VALID,0.746185
2009-02-27, 01:22:00,VALID,916.622,VALID,0,VALID,100,VALID,-0.0339617,VALID,18.8785,VALID,14,VALID,1.10298
2009-02-27, 01:23:00,VALID,916.618,VALID,0,VALID,100,VALID,-0.0339617,VALID,18.8303,VALID,12,VALID,1.64118
2009-02-27, 01:24:00,VALID,916.592,VALID,0,VALID,100,VALID,-0.0339617,VALID,18.7847,VALID,24,VALID,0.727983
2009-02-27, 01:25:00,VALID,916.567,VALID,0,VALID,100,VALID,-0.0509425,VALID,18.7687,VALID,29,VALID,1.58203
2009-02-27, 01:26:00,VALID,916.563,VALID,0,VALID,100,VALID,-0.0679233,VALID,18.7817,VALID,28,VALID,0.992188
2009-02-27, 01:27:00,VALID,916.559,VALID,0,VALID,100,VALID,-0.0169808,VALID,18.8042,VALID,31,VALID,1.22461
2009-02-27, 01:28:00,VALID,916.563,VALID,0,VALID,100,VALID,-0.0339617,VALID,18.8241,VALID,32,VALID,0.705915
2009-02-27, 01:29:00,VALID,916.564,VALID,0,VALID,100,VALID,0,VALID,18.8171,VALID,22,VALID,0.472656
2009-02-27, 01:30:00,VALID,916.554,VALID,0,VALID,100,VALID,-0.0169808,VALID,18.8139,VALID,29,VALID,0.124637
2009-02-27, 01:31:00,VALID,916.528,VALID,0,VALID,100,VALID,-0.0169808,VALID,18.8201,VALID,17,VALID,0.0988281
2009-02-27, 01:32:00,VALID,916.514,VALID,0,VALID,100,VALID,-0.0509425,VALID,18.8104,VALID,12,VALID,0.0853924
2009-02-27, 01:33:00,VALID,916.506,VALID,0,VALID,100,VALID,-0.0339617,VALID,18.7715,VALID,37,VALID,0.167578
2009-02-27, 01:34:00,VALID,916.482,VALID,0,VALID,100,VALID,-0.0169808,VALID,18.7845,VALID,39,VALID,0.0968387
2009-02-27, 01:35:00,VALID,916.463,VALID,0,VALID,100,VALID,-0.0169808,VALID,18.8046,VALID,52,VALID,0.263849
2009-02-27, 01:36:00,VALID,916.451,VALID,0,VALID,100,VALID,-0.0169808,VALID,18.8042,VALID,33,VALID,0.147656
2009-02-27, 01:37:00,VALID,916.469,VALID,0,VALID,100,VALID,-0.0509425,VALID,18.8039,VALID,29,VALID,0.455078
2009-02-27, 01:38:00,VALID,916.46,VALID,0,VALID,100,VALID,-0.0169808,VALID,18.7909,VALID,26,VALID,0.0911458
2009-02-27, 01:39:00,VALID,916.431,VALID,0,VALID,100,VALID,-0.0339617,VALID,18.7847,VALID,32,VALID,0.483994
2009-02-27, 01:40:00,VALID,916.45,VALID,0,VALID,100,VALID,0,VALID,18.7618,VALID,27,VALID,0.42309
2009-02-27, 01:41:00,VALID,916.468,VALID,0,VALID,100,VALID,0,VALID,18.7585,VALID,30,VALID,0.0941134
2009-02-27, 01:42:00,VALID,916.486,VALID,0,VALID,100,VALID,0,VALID,18.7815,VALID,38,VALID,0.235137
2009-02-27, 01:43:00,VALID,916.49,VALID,0,VALID,100,VALID,-0.0169808,VALID,18.7847,VALID,32,VALID,0.0449219
2009-02-27, 01:44:00,VALID,916.474,VALID,0,VALID,100,VALID,-0.0169808,VALID,18.7747,VALID,20,VALID,0.555804
2009-02-27, 01:45:00,VALID,916.49,VALID,0,VALID,100,VALID,0,VALID,18.7458,VALID,19,VALID,0.139717
2009-02-27, 01:46:00,VALID,916.487,VALID,0,VALID,100,VALID,0,VALID,18.7358,VALID,16,VALID,0.135099
2009-02-27, 01:47:00,VALID,916.477,VALID,0,VALID,100,VALID,-0.0169808,VALID,18.7358,VALID,26,VALID,0.0848214
2009-02-27, 01:48:00,VALID,916.463,VALID,0,VALID,100,VALID,0,VALID,18.739,VALID,29,VALID,0.0012429
2009-02-27, 01:49:00,VALID,916.464,VALID,0,VALID,100,VALID,-0.0169808,VALID,18.7423,VALID,18,VALID,0.0779433
2009-02-27, 01:50:00,VALID,916.446,VALID,0,VALID,100,VALID,-0.0339617,VALID,18.7682,VALID,26,VALID,0
2009-02-27, 01:51:00,VALID,916.433,VALID,0,VALID,100,VALID,0,VALID,18.762,VALID,13,VALID,0
2009-02-27, 01:52:00,VALID,916.413,VALID,0,VALID,100,VALID,-0.0169808,VALID,18.7363,VALID,29,VALID,0.117898
2009-02-27, 01:53:00,VALID,916.408,VALID,0,VALID,100,VALID,-0.0339617,VALID,18.736,VALID,29,VALID,0.293324
2009-02-27, 01:54:00,VALID,916.396,VALID,0,VALID,100,VALID,-0.0339617,VALID,18.765,VALID,45,VALID,0.446948
2009-02-27, 01:55:00,VALID,916.396,VALID,0,VALID,100,VALID,0,VALID,18.7652,VALID,28,VALID,0.273628
2009-02-27, 01:56:00,VALID,916.401,VALID,0,VALID,100,VALID,-0.0339617,VALID,18.7717,VALID,26,VALID,0.277071
2009-02-27, 01:57:00,VALID,916.39,VALID,0,VALID,100,VALID,-0.0169808,VALID,18.7747,VALID,34,VALID,0.342226
2009-02-27, 01:58:00,VALID,916.388,VALID,0,VALID,100,VALID,-0.0169808,VALID,18.749,VALID,29,VALID,0.396439
2009-02-27, 01:59:00,VALID,916.391,VALID,0,VALID,100,VALID,-0.0169808,VALID,18.752,VALID,29,VALID,0.277257
2009-02-27, 02:00:00,VALID,916.375,VALID,0,VALID,100,VALID,-0.0339617,VALID,18.7587,VALID,27,VALID,0.330031
2009-02-27, 02:01:00,VALID,916.333,VALID,0,VALID,100,VALID,0,VALID,18.772,VALID,35,VALID,0.203869
2009-02-27, 02:02:00,VALID,916.309,VALID,0,VALID,100,VALID,0,VALID,18.752,VALID,32,VALID,0.457422
2009-02-27, 02:03:00,VALID,916.27,VALID,0,VALID,100,VALID,-0.0169808,VALID,18.7455,VALID,33,VALID,0.601181
2009-02-27, 02:04:00,VALID,916.238,VALID,0,VALID,100,VALID,-0.0339617,VALID,18.746,VALID,23,VALID,0.260603
2009-02-27, 02:05:00,VALID,916.232,VALID,0,VALID,100,VALID,-0.0509425,VALID,18.7458,VALID,31,VALID,0.352896
2009-02-27, 02:06:00,VALID,916.223,VALID,0,VALID,100,VALID,-0.0509425,VALID,18.7326,VALID,29,VALID,0.323331
2009-02-27, 02:07:00,VALID,916.198,VALID,0,VALID,100,VALID,0,VALID,18.7265,VALID,29,VALID,0.53452
2009-02-27, 02:08:00,VALID,916.188,VALID,0,VALID,100,VALID,-0.0169808,VALID,18.7296,VALID,35,VALID,0.425595
2009-02-27, 02:09:00,VALID,916.181,VALID,0,VALID,100,VALID,0,VALID,18.7099,VALID,29,VALID,0.403516
2009-02-27, 02:10:00,VALID,916.161,VALID,0,VALID,100,VALID,-0.0169808,VALID,18.7166,VALID,31,VALID,0.090843
2009-02-27, 02:11:00,VALID,916.137,VALID,0,VALID,100,VALID,-0.0339617,VALID,18.7393,VALID,30,VALID,0.135417
2009-02-27, 02:12:00,VALID,916.107,VALID,0,VALID,100,VALID,-0.0339617,VALID,18.749,VALID,19,VALID,0.0586806
2009-02-27, 02:13:00,VALID,916.102,VALID,0,VALID,100,VALID,-0.0509425,VALID,18.7488,VALID,26,VALID,0.354353
2009-02-27, 02:14:00,VALID,916.093,VALID,0,VALID,100,VALID,0,VALID,18.7326,VALID,19,VALID,0.0101744
2009-02-27, 02:15:00,VALID,916.088,VALID,0,VALID,100,VALID,0,VALID,18.7263,VALID,18,VALID,0.0340402
2009-02-27, 02:16:00,VALID,916.07,VALID,0,VALID,100,VALID,0,VALID,18.7228,VALID,15,VALID,0
2009-02-27, 02:17:00,VALID,916.048,VALID,0,VALID,100,VALID,0,VALID,18.7133,VALID,29,VALID,0
2009-02-27, 02:18:00,VALID,916.014,VALID,0,VALID,100,VALID,0,VALID,18.7196,VALID,26,VALID,0
2009-02-27, 02:19:00,VALID,915.99,VALID,0,VALID,100,VALID,0,VALID,18.7261,VALID,31,VALID,0
2009-02-27, 02:20:00,VALID,915.94,VALID,0,VALID,100,VALID,0,VALID,18.7326,VALID,31,VALID,0.113477
2009-02-27, 02:21:00,VALID,915.915,VALID,0,VALID,100,VALID,0,VALID,18.7428,VALID,21,VALID,0.293713
2009-02-27, 02:22:00,VALID,915.9,VALID,0,VALID,100,VALID,-0.0339617,VALID,18.7099,VALID,22,VALID,0
2009-02-27, 02:23:00,VALID,915.867,VALID,0,VALID,100,VALID,-0.0169808,VALID,18.6872,VALID,25,VALID,0.0012718
2009-02-27, 02:24:00,VALID,915.861,VALID,0,VALID,100,VALID,-0.0339617,VALID,18.6872,VALID,22,VALID,0.139353
2009-02-27, 02:25:00,VALID,915.849,VALID,0,VALID,100,VALID,-0.0169808,VALID,18.6834,VALID,24,VALID,0.0606831
2009-02-27, 02:26:00,VALID,915.856,VALID,0,VALID,100,VALID,0,VALID,18.6872,VALID,9,VALID,0.0650436
2009-02-27, 02:27:00,VALID,915.841,VALID,0,VALID,100,VALID,0,VALID,18.6839,VALID,22,VALID,0
2009-02-27, 02:28:00,VALID,915.815,VALID,0,VALID,100,VALID,-0.0169808,VALID,18.6899,VALID,29,VALID,0
2009-02-27, 02:29:00,VALID,915.804,VALID,0,VALID,100,VALID,0,VALID,18.7001,VALID,29,VALID,0
2009-02-27, 02:30:00,VALID,915.803,VALID,0,VALID,100,VALID,0.0169808,VALID,18.6936,VALID,29,VALID,0
2009-02-27, 02:31:00,VALID,915.792,VALID,0,VALID,100,VALID,0,VALID,18.6936,VALID,29,VALID,0
2009-02-27, 02:32:00,VALID,915.772,VALID,0,VALID,100,VALID,-0.0169808,VALID,18.6637,VALID,29,VALID,0
2009-02-27, 02:33:00,VALID,915.755,VALID,0,VALID,100,VALID,-0.0169808,VALID,18.6839,VALID,29,VALID,0
2009-02-27, 02:34:00,VALID,915.744,VALID,0,VALID,100,VALID,-0.0339617,VALID,18.6872,VALID,30,VALID,0
2009-02-27, 02:35:00,VALID,915.734,VALID,0,VALID,100,VALID,-0.0339617,VALID,18.6809,VALID,38,VALID,0
2009-02-27, 02:36:00,VALID,915.71,VALID,0,VALID,100,VALID,-0.0509425,VALID,18.6619,VALID,38,VALID,0
2009-02-27, 02:37:00,VALID,915.681,VALID,0,VALID,100,VALID,-0.0509425,VALID,18.6742,VALID,35,VALID,0
2009-02-27, 02:38:00,VALID,915.666,VALID,0,VALID,100,VALID,-0.0679233,VALID,18.6943,VALID,34,VALID,0
2009-02-27, 02:39:00,VALID,915.65,VALID,0,VALID,100,VALID,-0.0169808,VALID,18.6844,VALID,34,VALID,0
2009-02-27, 02:40:00,VALID,915.628,VALID,0,VALID,100,VALID,-0.0169808,VALID,18.6512,VALID,34,VALID,0
2009-02-27, 02:41:00,VALID,915.598,VALID,0,VALID,100,VALID,-0.0169808,VALID,18.6415,VALID,34,VALID,0
2009-02-27, 02:42:00,VALID,915.587,VALID,0,VALID,100,VALID,-0.0509425,VALID,18.6357,VALID,34,VALID,0
2009-02-27, 02:43:00,VALID,915.562,VALID,0,VALID,100,VALID,-0.0169808,VALID,18.632,VALID,32,VALID,0
2009-02-27, 02:44:00,VALID,915.547,VALID,0,VALID,100,VALID,-0.0339617,VALID,18.619,VALID,7,VALID,0.0482337
2009-02-27, 02:45:00,VALID,915.544,VALID,0,VALID,100,VALID,-0.0679233,VALID,18.5769,VALID,3,VALID,0.00545058
2009-02-27, 02:46:00,VALID,915.53,VALID,0,VALID,100,VALID,-0.0169808,VALID,18.5671,VALID,18,VALID,0
2009-02-27, 02:47:00,VALID,915.535,VALID,0,VALID,100,VALID,-0.0169808,VALID,18.5704,VALID,18,VALID,0
2009-02-27, 02:48:00,VALID,915.52,VALID,0,VALID,100,VALID,-0.0169808,VALID,18.5671,VALID,18,VALID,0
2009-02-27, 02:49:00,VALID,915.539,VALID,0,VALID,100,VALID,-0.0169808,VALID,18.5671,VALID,18,VALID,0
2009-02-27, 02:50:00,VALID,915.534,VALID,0,VALID,100,VALID,-0.0339617,VALID,18.5803,VALID,18,VALID,0
2009-02-27, 02:51:00,VALID,915.546,VALID,0,VALID,100,VALID,-0.0339617,VALID,18.5771,VALID,18,VALID,0
2009-02-27, 02:52:00,VALID,915.553,VALID,0,VALID,100,VALID,-0.0339617,VALID,18.5739,VALID,18,VALID,0
2009-02-27, 02:53:00,VALID,915.556,VALID,0,VALID,100,VALID,-0.0339617,VALID,18.5609,VALID,18,VALID,0
2009-02-27, 02:54:00,VALID,915.57,VALID,0,VALID,100,VALID,-0.0509425,VALID,18.5449,VALID,18,VALID,0
2009-02-27, 02:55:00,VALID,915.577,VALID,0,VALID,100,VALID,-0.0509425,VALID,18.5579,VALID,18,VALID,0
2009-02-27, 02:56:00,VALID,915.582,VALID,0,VALID,100,VALID,-0.0339617,VALID,18.5542,VALID,18,VALID,0
2009-02-27, 02:57:00,VALID,915.577,VALID,0,VALID,100,VALID,-0.0339617,VALID,18.5611,VALID,18,VALID,0
2009-02-27, 02:58:00,VALID,915.584,VALID,0,VALID,100,VALID,0,VALID,18.5542,VALID,18,VALID,0
2009-02-27, 02:59:00,VALID,915.586,VALID,0,VALID,100,VALID,-0.0339617,VALID,18.5607,VALID,18,VALID,0
2009-02-27, 03:00:00,VALID,915.592,VALID,0,VALID,100,VALID,-0.0339617,VALID,18.5509,VALID,18,VALID,0
2009-02-27, 03:01:00,VALID,915.604,VALID,0,VALID,100,VALID,-0.0169808,VALID,18.5444,VALID,18,VALID,0
2009-02-27, 03:02:00,VALID,915.612,VALID,0,VALID,100,VALID,-0.0169808,VALID,18.5447,VALID,18,VALID,0
2009-02-27, 03:03:00,VALID,915.612,VALID,0,VALID,100,VALID,-0.0679233,VALID,18.5317,VALID,18,VALID,0
2009-02-27, 03:04:00,VALID,915.619,VALID,0,VALID,100,VALID,-0.0679233,VALID,18.5155,VALID,18,VALID,0
2009-02-27, 03:05:00,VALID,915.61,VALID,0,VALID,100,VALID,-0.0849042,VALID,18.522,VALID,18,VALID,0.0112645
2009-02-27, 03:06:00,VALID,915.604,VALID,0,VALID,100,VALID,-0.101885,VALID,18.5127,VALID,18,VALID,0.0327381
2009-02-27, 03:07:00,VALID,915.617,VALID,0,VALID,100,VALID,-0.0849042,VALID,18.5127,VALID,20,VALID,0
2009-02-27, 03:08:00,VALID,915.627,VALID,0,VALID,100,VALID,-0.0339617,VALID,18.4928,VALID,33,VALID,0.102983
2009-02-27, 03:09:00,VALID,915.662,VALID,0,VALID,100,VALID,-0.0339617,VALID,18.5125,VALID,27,VALID,0.0241815
2009-02-27, 03:10:00,VALID,915.673,VALID,0,VALID,100,VALID,-0.0679233,VALID,18.519,VALID,45,VALID,0.00685976
2009-02-27, 03:11:00,VALID,915.691,VALID,0,VALID,100,VALID,0,VALID,18.5384,VALID,44,VALID,0
2009-02-27, 03:12:00,VALID,915.736,VALID,0,VALID,100,VALID,-0.0339617,VALID,18.525,VALID,44,VALID,0
2009-02-27, 03:13:00,VALID,915.743,VALID,0,VALID,100,VALID,-0.0339617,VALID,18.4995,VALID,19,VALID,0
2009-02-27, 03:14:00,VALID,915.757,VALID,0,VALID,100,VALID,-0.0169808,VALID,18.4828,VALID,268,VALID,0
2009-02-27, 03:15:00,VALID,915.764,VALID,0,VALID,100,VALID,-0.0509425,VALID,18.4833,VALID,273,VALID,0
2009-02-27, 03:16:00,VALID,915.756,VALID,0,VALID,100,VALID,-0.0169808,VALID,18.4735,VALID,248,VALID,0
2009-02-27, 03:17:00,VALID,915.745,VALID,0,VALID,100,VALID,-0.0339617,VALID,18.4828,VALID,357,VALID,0
2009-02-27, 03:18:00,VALID,915.75,VALID,0,VALID,100,VALID,-0.0169808,VALID,18.4932,VALID,20,VALID,0
2009-02-27, 03:19:00,VALID,915.749,VALID,0,VALID,100,VALID,-0.0679233,VALID,18.4796,VALID,20,VALID,0
2009-02-27, 03:20:00,VALID,915.761,VALID,0,VALID,100,VALID,-0.0169808,VALID,18.4925,VALID,20,VALID,0
2009-02-27, 03:21:00,VALID,915.747,VALID,0,VALID,100,VALID,-0.0339617,VALID,18.4828,VALID,27,VALID,0
2009-02-27, 03:22:00,VALID,915.728,VALID,0,VALID,100,VALID,-0.0509425,VALID,18.4798,VALID,32,VALID,0
2009-02-27, 03:23:00,VALID,915.726,VALID,0,VALID,100,VALID,0.0339617,VALID,18.4492,VALID,31,VALID,0
2009-02-27, 03:24:00,VALID,915.723,VALID,0,VALID,100,VALID,0.0509425,VALID,18.436,VALID,29,VALID,0
2009-02-27, 03:25:00,VALID,915.717,VALID,0,VALID,100,VALID,0.0679233,VALID,18.42,VALID,26,VALID,0
2009-02-27, 03:26:00,VALID,915.7,VALID,0,VALID,100,VALID,0.0849042,VALID,18.4133,VALID,25,VALID,0.034375
2009-02-27, 03:27:00,VALID,915.704,VALID,0,VALID,100,VALID,0.101885,VALID,18.4133,VALID,25,VALID,0.1516
2009-02-27, 03:28:00,VALID,915.708,VALID,0,VALID,100,VALID,0.101885,VALID,18.4033,VALID,15,VALID,0.0172602
2009-02-27, 03:29:00,VALID,915.715,VALID,0,VALID,100,VALID,0.0509425,VALID,18.3971,VALID,16,VALID,0
2009-02-27, 03:30:00,VALID,915.729,VALID,0,VALID,100,VALID,0.0339617,VALID,18.4135,VALID,18,VALID,0
2009-02-27, 03:31:00,VALID,915.742,VALID,0,VALID,100,VALID,0.0679233,VALID,18.4196,VALID,16,VALID,0
2009-02-27, 03:32:00,VALID,915.745,VALID,0,VALID,100,VALID,0.0849042,VALID,18.4228,VALID,26,VALID,0
2009-02-27, 03:33:00,VALID,915.77,VALID,0,VALID,100,VALID,0.0679233,VALID,18.4525,VALID,34,VALID,0
2009-02-27, 03:34:00,VALID,915.766,VALID,0,VALID,100,VALID,0.0849042,VALID,18.4555,VALID,34,VALID,0
2009-02-27, 03:35:00,VALID,915.767,VALID,0,VALID,100,VALID,0.0339617,VALID,18.4657,VALID,34,VALID,0
2009-02-27, 03:36:00,VALID,915.763,VALID,0,VALID,100,VALID,0.0849042,VALID,18.462,VALID,33,VALID,0
2009-02-27, 03:37:00,VALID,915.758,VALID,0,VALID,100,VALID,0.0509425,VALID,18.4652,VALID,33,VALID,0
2009-02-27, 03:38:00,VALID,915.728,VALID,0,VALID,100,VALID,0,VALID,18.4569,VALID,33,VALID,0
2009-02-27, 03:39:00,VALID,915.728,VALID,0,VALID,100,VALID,-0.0169808,VALID,18.4701,VALID,40,VALID,0
2009-02-27, 03:40:00,VALID,915.737,VALID,0,VALID,100,VALID,-0.0169808,VALID,18.4763,VALID,26,VALID,0.00109012
2009-02-27, 03:41:00,VALID,915.744,VALID,0,VALID,100,VALID,-0.0509425,VALID,18.4928,VALID,41,VALID,0.0386905
2009-02-27, 03:42:00,VALID,915.754,VALID,0,VALID,100,VALID,-0.0339617,VALID,18.4928,VALID,35,VALID,0.00651042
2009-02-27, 03:43:00,VALID,915.767,VALID,0,VALID,100,VALID,-0.0509425,VALID,18.503,VALID,12,VALID,0.108648
2009-02-27, 03:44:00,VALID,915.776,VALID,0,VALID,100,VALID,-0.0509425,VALID,18.496,VALID,17,VALID,0.138529
2009-02-27, 03:45:00,VALID,915.778,VALID,0,VALID,100,VALID,-0.0679233,VALID,18.4898,VALID,25,VALID,0.00410156
2009-02-27, 03:46:00,VALID,915.773,VALID,0,VALID,100,VALID,-0.0849042,VALID,18.4731,VALID,28,VALID,0.105291
2009-02-27, 03:47:00,VALID,915.778,VALID,0,VALID,100,VALID,-0.0339617,VALID,18.4733,VALID,28,VALID,0